Location: Albany
(35.0000°S, 118.0000°E)
Time: 19:49:15
(UTC-04:00)

Atlas Centaur 2 - Visible Passes

Search period start: 31 August 2015 00:00
Search period end: 10 September 2015 00:00
Orbit: 460 x 1319 km, 30.4° (Epoch: 30 August)

Date Brightness Start Highest point End Pass type
(mag) Time Alt. Az. Time Alt. Az. Time Alt. Az.
31 Aug 4.4 15:12:59 23° NE 15:12:59 23° NE 15:17:30 10° E visible
31 Aug 3.4 16:55:42 23° NW 17:00:17 52° NNE 17:08:28 10° E visible
01 Sep 4.3 15:10:55 25° NE 15:10:55 25° NE 15:15:15 10° E visible
01 Sep 3.3 16:53:37 26° NW 16:57:48 56° NNE 17:06:00 10° E visible
02 Sep 4.3 15:08:47 27° ENE 15:08:47 27° ENE 15:12:55 10° E visible
02 Sep 3.2 16:51:29 29° WNW 16:55:19 59° N 17:03:30 10° E visible
03 Sep 4.2 15:06:38 27° ENE 15:06:38 27° ENE 15:10:32 10° E visible
03 Sep 3.1 16:49:20 31° WNW 16:52:52 61° N 17:01:00 10° E visible
04 Sep 4.2 15:04:27 27° ENE 15:04:27 27° ENE 15:08:06 10° E visible
04 Sep 3.0 16:47:09 33° WNW 16:50:26 62° N 16:58:28 10° E visible
05 Sep 4.2 15:02:16 26° ENE 15:02:16 26° ENE 15:05:38 10° E visible
05 Sep 2.9 16:44:58 34° WNW 16:48:00 61° N 16:55:55 10° ENE visible
06 Sep 4.3 15:00:06 25° ENE 15:00:06 25° ENE 15:03:09 10° E visible
06 Sep 2.9 16:42:48 35° WNW 16:45:35 59° N 16:53:20 10° ENE visible
07 Sep 4.3 14:57:56 23° ENE 14:57:56 23° ENE 15:00:39 10° E visible
07 Sep 2.9 16:40:39 36° WNW 16:43:10 55° N 16:50:44 10° ENE visible
08 Sep 4.4 14:55:49 21° ENE 14:55:49 21° ENE 14:58:08 10° E visible
08 Sep 2.9 16:38:31 36° WNW 16:40:46 51° N 16:48:05 10° ENE visible
09 Sep 4.5 14:53:44 19° ENE 14:53:44 19° ENE 14:55:37 10° ENE visible
09 Sep 2.9 16:36:26 36° NW 16:38:21 45° NNW 16:45:22 10° ENE visible
